Location: Bergnershof
(48.9468°N, 10.9431°E)
Time: 10:58:45
(UTC+00:00)

SJ 16-02 - Pass Details

Date: 03 March 2021
Orbit: 605 x 617 km, 75.0° (Epoch: 13 April)

Event Time Altitude Azimuth Distance (km) Brightness Sun altitude
Rises 19:34:00 0° 339° (NNW) 2,884 5.4 -25.2°
Reaches altitude 10° 19:36:15 10° 341° (NNW) 1,977 4.4 -25.6°
Enters shadow 19:39:32 49° 353° (N) 797 2.0 -26.1°
